Location: Prairie View Elementary School
(39.8322°N, 99.5698°W)
Time: 04:44:39
(UTC+00:00)

Okean 1 - Pass Details

Date: 08 December 2019
Orbit: 540 x 554 km, 82.5° (Epoch: 27 January)

Event Time Altitude Azimuth Distance (km) Brightness Sun altitude
Rises 01:21:00 0° 188° (S) 2,702 7.1 -23.8°
Reaches altitude 10° 01:23:09 10° 189° (S) 1,812 6.2 -24.2°
Enters shadow 01:25:59 45° 194° (SSW) 749 4.0 -24.7°
